LAUNCHERONE R/B (47316 NORAD) Tracking and Keplerian Element Data

This shows tracking and keplerian element data for the satellite.

Feedback or suggestion? Click here.




ElementValue
Catalog47316
NameLAUNCHERONE R/B
Epoch Orbit445
Epoch Day47.03192304
Epoch Year2021
RAAN23.2047
Inclination60.7001
Eccentricity0.0060444
Argument of Perigee235.9511
Mean Anonmoly123.5835
Mean Motion15.35610762
Decay Rate1.496E-05
L11 47316U 21002H 21047.03192304 .00001496 00000-0 49716-4 0 9993
L22 47316 60.7001 23.2047 0060444 235.9511 123.5835 15.35610762 4455

Live tracking and technical data element details for LAUNCHERONE R/B (NORAD 47316). LAUNCHERONE R/B can be tracked NOW for your location showing map with azimuth and elevation plus other details from your city location.

Track the satellite on the map from your city or location and see movement details for azimuth, elevation, latitude, longitude, range, height, and movement on the map or in text.







IsCatalogInMostPopularTable: catalog: 47316, numindb: 20
Update: records affected: 1



GetName: 47316 LAUNCHERONE R/B

Hit Count: updated at: Sat, 10 Apr 2021 19:10:16 GMT